User: anonymous   Login
Location: Cranbrook Institute of Science
(42.5830°N, 83.2450°W)
Time: 20:19:36
(UTC-04:00)
Language:

ATLAS 5 CENTAUR R/B - Orbit

View from above orbital plane
View from above orbital plane
View from above satellite
View from above satellite

Ground track
Ground track

The orbit data is extracted from the following two-line orbital elements,

1 31702U 07027B   17080.12467281 0.00000300  00000-0  10176-3 0    00
2 31702  63.3682 119.4398 0265315   3.0040 356.9960 14.18551443    01
Epoch (UTC): 21 March 2017 02:59:31
Eccentricity: 0.0265315
inclination: 63.3682°
perigee height: 639 km
apogee height: 1021 km
right ascension of ascending node: 119.4398°
argument of perigee: 3.0040°
revolutions per day: 14.18551443
mean anomaly at epoch: 356.9960°
orbit number at epoch: 0

The dashed part of the orbit path shows where the satellite is in the earth's shadow,  

DLR